| time (UTC) | temp F | wind direction | speed knots | gust knots | rain 1hr in | rain 24hr in | rain mn in | humidity % | barometer mb |
| 20260505183002 | 46 | 264 | 4.3 | 0.0 | 0.00 | 0.00 | 0.00 | 61 | 1009.9 |
| 20260505181502 | 46 | 264 | 4.3 | 0.0 | 0.00 | 0.00 | 0.00 | 61 | 1009.9 |
| 20260505180002 | 48 | 258 | 4.3 | 0.0 | 0.00 | 0.00 | 0.00 | 61 | 1009.9 |
| 20260505174502 | 48 | 258 | 4.3 | 0.0 | 0.00 | 0.00 | 0.00 | 61 | 1009.9 |
| 20260505173002 | 48 | 258 | 4.3 | 0.0 | 0.00 | 0.00 | 0.00 | 61 | 1009.9 |
| 20260505171502 | 48 | 258 | 4.3 | 0.0 | 0.00 | 0.00 | 0.00 | 61 | 1009.9 |
| 20260505170002 | 48 | 258 | 4.3 | 0.0 | 0.00 | 0.00 | 0.00 | 61 | 1009.9 |
| 20260505164502 | 47 | 258 | 4.3 | 0.0 | 0.00 | 0.00 | 0.00 | 61 | 1009.9 |
| 20260505163002 | 47 | 258 | 4.3 | 0.0 | 0.00 | 0.00 | 0.00 | 61 | 1009.9 |
| 20260505161502 | 48 | 256 | 4.3 | 0.0 | 0.00 | 0.00 | 0.00 | 61 | 1009.9 |
| 20260505153002 | 48 | 280 | 3.5 | 0.0 | 0.00 | 0.00 | 0.00 | 61 | 1009.9 |
| 20260505151501 | 48 | 280 | 3.5 | 0.0 | 0.00 | 0.00 | 0.00 | 61 | 1009.9 |
| 20260505124501 | 48 | 278 | 3.5 | 0.0 | 0.00 | 0.00 | 0.00 | 61 | 1009.9 |
| 20260505123002 | 47 | 280 | 3.5 | 0.0 | 0.00 | 0.00 | 0.00 | 61 | 1009.9 |
| 20260505121501 | 47 | 280 | 3.5 | 0.0 | 0.00 | 0.00 | 0.00 | 61 | 1009.9 |
| 20260505120003 | 46 | 289 | 3.5 | 0.0 | 0.00 | 0.00 | 0.00 | 61 | 1009.9 |
| 20260505114501 | 46 | 289 | 3.5 | 0.0 | 0.00 | 0.00 | 0.00 | 61 | 1009.9 |
| 20260505113002 | 46 | 289 | 3.5 | 0.0 | 0.00 | 0.00 | 0.00 | 61 | 1009.9 |
| 20260505111501 | 45 | 289 | 3.5 | 0.0 | 0.00 | 0.00 | 0.00 | 61 | 1009.9 |
| 20260505101502 | 44 | 292 | 4.3 | 0.0 | 0.00 | 0.00 | 0.00 | 61 | 1009.9 |
| 20260505100002 | 43 | 290 | 3.5 | 0.0 | 0.00 | 0.00 | 0.00 | 61 | 1009.9 |
| 20260505094502 | 43 | 290 | 3.5 | 0.0 | 0.00 | 0.00 | 0.00 | 61 | 1009.9 |
| 20260505093001 | 43 | 290 | 3.5 | 0.0 | 0.00 | 0.00 | 0.00 | 61 | 1009.9 |
| 20260505091502 | 43 | 290 | 3.5 | 0.0 | 0.00 | 0.00 | 0.00 | 61 | 1009.9 |
| 20260505090002 | 43 | 290 | 3.5 | 0.0 | 0.00 | 0.00 | 0.00 | 61 | 1009.9 |
| 20260505084502 | 42 | 300 | 4.3 | 0.0 | 0.00 | 0.00 | 0.00 | 61 | 1009.9 |
| 20260505083002 | 42 | 300 | 4.3 | 0.0 | 0.00 | 0.00 | 0.00 | 61 | 1009.9 |
| 20260505081502 | 39 | 300 | 4.3 | 0.0 | 0.00 | 0.00 | 0.00 | 61 | 1009.9 |
| 20260505080002 | 39 | 300 | 4.3 | 0.0 | 0.00 | 0.00 | 0.00 | 61 | 1009.9 |
| 20260505074502 | 39 | 300 | 4.3 | 0.0 | 0.00 | 0.00 | 0.00 | 61 | 1009.9 |
| 20260505073001 | 37 | 309 | 5.2 | 0.0 | 0.00 | 0.00 | 0.00 | 61 | 1009.9 |
| 20260505071502 | 37 | 309 | 5.2 | 0.0 | 0.00 | 0.00 | 0.00 | 61 | 1009.9 |
| 20260505070001 | 36 | 312 | 4.3 | 0.0 | 0.00 | 0.00 | 0.00 | 61 | 1009.9 |
| 20260505064502 | 36 | 312 | 4.3 | 0.0 | 0.00 | 0.00 | 0.00 | 61 | 1009.9 |
| 20260505063002 | 36 | 312 | 4.3 | 0.0 | 0.00 | 0.00 | 0.00 | 61 | 1009.9 |
| 20260505061502 | 33 | 318 | 4.3 | 0.0 | 0.00 | 0.00 | 0.00 | 61 | 1009.9 |
| 20260505060002 | 33 | 318 | 4.3 | 0.0 | 0.00 | 0.00 | 0.00 | 61 | 1009.9 |
| 20260505053002 | 31 | 316 | 5.2 | 0.0 | 0.00 | 0.00 | 0.00 | 61 | 1009.9 |
| 20260505051501 | 31 | 316 | 5.2 | 0.0 | 0.00 | 0.00 | 0.00 | 61 | 1009.9 |
| 20260505041501 | 31 | 300 | 6.1 | 0.0 | 0.00 | 0.00 | 0.00 | 61 | 1009.9 |
| 20260505040002 | 31 | 300 | 6.1 | 0.0 | 0.00 | 0.00 | 0.00 | 61 | 1009.9 |
| 20260505034501 | 32 | 297 | 6.1 | 0.0 | 0.00 | 0.00 | 0.00 | 61 | 1009.9 |
| 20260505033002 | 32 | 297 | 6.1 | 0.0 | 0.00 | 0.00 | 0.00 | 61 | 1009.9 |
| 20260505031501 | 32 | 297 | 6.1 | 0.0 | 0.00 | 0.00 | 0.00 | 61 | 1009.9 |
| 20260505030002 | 32 | 297 | 6.1 | 0.0 | 0.00 | 0.00 | 0.00 | 61 | 1009.9 |
| 20260505024501 | 33 | 296 | 6.1 | 0.0 | 0.00 | 0.00 | 0.00 | 61 | 1009.9 |
| 20260505023002 | 33 | 296 | 6.1 | 0.0 | 0.00 | 0.00 | 0.00 | 61 | 1009.9 |
| 20260505021502 | 33 | 296 | 6.1 | 0.0 | 0.00 | 0.00 | 0.00 | 61 | 1009.9 |
| 20260505020003 | 33 | 296 | 7.0 | 0.0 | 0.00 | 0.00 | 0.00 | 61 | 1009.9 |
| 20260505014502 | 33 | 296 | 7.0 | 0.0 | 0.00 | 0.00 | 0.00 | 61 | 1009.9 |
| 20260505013002 | 33 | 296 | 7.0 | 0.0 | 0.00 | 0.00 | 0.00 | 61 | 1009.9 |
| 20260505011502 | 33 | 296 | 7.0 | 0.0 | 0.00 | 0.00 | 0.00 | 61 | 1009.9 |
| 20260505010002 | 33 | 296 | 7.0 | 0.0 | 0.00 | 0.00 | 0.00 | 61 | 1009.9 |
| 20260505004501 | 34 | 289 | 7.0 | 0.0 | 0.00 | 0.00 | 0.00 | 61 | 1009.9 |
| 20260505003002 | 34 | 289 | 7.0 | 0.0 | 0.00 | 0.00 | 0.00 | 61 | 1009.9 |
| 20260505001502 | 34 | 289 | 7.0 | 0.0 | 0.00 | 0.00 | 0.00 | 61 | 1009.9 |
| 20260505000001 | 34 | 289 | 7.0 | 0.0 | 0.00 | 0.00 | 0.00 | 61 | 1009.9 |
| 20260504234502 | 34 | 289 | 7.0 | 0.0 | 0.00 | 0.00 | 0.00 | 61 | 1009.9 |
| 20260504233001 | 35 | 288 | 4.3 | 0.0 | 0.00 | 0.00 | 0.00 | 61 | 1009.9 |
| 20260504231502 | 35 | 288 | 4.3 | 0.0 | 0.00 | 0.00 | 0.00 | 61 | 1009.9 |
| 20260504230001 | 35 | 288 | 4.3 | 0.0 | 0.00 | 0.00 | 0.00 | 61 | 1009.9 |
| 20260504224502 | 35 | 288 | 4.3 | 0.0 | 0.00 | 0.00 | 0.00 | 61 | 1009.9 |
| 20260504223001 | 35 | 288 | 4.3 | 0.0 | 0.00 | 0.00 | 0.00 | 61 | 1009.9 |
| 20260504221502 | 37 | 282 | 4.3 | 0.0 | 0.00 | 0.00 | 0.00 | 61 | 1009.9 |
| 20260504220002 | 37 | 282 | 4.3 | 0.0 | 0.00 | 0.00 | 0.00 | 61 | 1009.9 |
| 20260504214502 | 38 | 280 | 2.6 | 0.0 | 0.00 | 0.00 | 0.00 | 61 | 1009.9 |
| 20260504213002 | 38 | 280 | 2.6 | 0.0 | 0.00 | 0.00 | 0.00 | 61 | 1009.9 |
| 20260504211502 | 38 | 280 | 2.6 | 0.0 | 0.00 | 0.00 | 0.00 | 61 | 1009.9 |
| 20260504210002 | 39 | 280 | 2.6 | 0.0 | 0.00 | 0.00 | 0.00 | 61 | 1009.9 |
| 20260504204502 | 39 | 280 | 2.6 | 0.0 | 0.00 | 0.00 | 0.00 | 61 | 1009.9 |
| 20260504203002 | 42 | 265 | 2.6 | 0.0 | 0.00 | 0.00 | 0.00 | 61 | 1009.9 |
| 20260504201502 | 42 | 265 | 2.6 | 0.0 | 0.00 | 0.00 | 0.00 | 61 | 1009.9 |
| 20260504200002 | 46 | 257 | 1.7 | 0.0 | 0.00 | 0.00 | 0.00 | 61 | 1009.9 |
| 20260504194502 | 46 | 257 | 1.7 | 0.0 | 0.00 | 0.00 | 0.00 | 61 | 1009.9 |
| 20260504193002 | 46 | 257 | 1.7 | 0.0 | 0.00 | 0.00 | 0.00 | 61 | 1009.9 |
| 20260504191501 | 48 | 252 | 1.7 | 0.0 | 0.00 | 0.00 | 0.00 | 61 | 1009.9 |
| 20260504190002 | 48 | 252 | 1.7 | 0.0 | 0.00 | 0.00 | 0.00 | 61 | 1009.9 |
| 20260504184501 | 50 | 277 | 1.7 | 0.0 | 0.00 | 0.00 | 0.00 | 61 | 1009.9 |